TimeAKST,TemperatureF,Dew PointF,Humidity,Sea Level PressureIn,VisibilityMPH,Wind Direction,Wind SpeedMPH,Gust SpeedMPH,PrecipitationIn,Events,Conditions,WindDirDegrees,DateUTC
12:53 AM,-20.0,-26.0,74,29.74,10.0,Calm,Calm,-,N/A,,Partly Cloudy,0,2012-12-15 09:53:00
1:53 AM,-22.0,-27.9,74,29.75,10.0,Calm,Calm,-,N/A,,Partly Cloudy,0,2012-12-15 10:53:00
2:53 AM,-18.9,-25.1,74,29.76,10.0,Calm,Calm,-,N/A,,Partly Cloudy,0,2012-12-15 11:53:00
3:53 AM,-18.0,-22.0,82,29.75,10.0,Calm,Calm,-,N/A,,Partly Cloudy,0,2012-12-15 12:53:00
4:53 AM,-18.9,-24.0,78,29.75,10.0,Calm,Calm,-,N/A,,Partly Cloudy,0,2012-12-15 13:53:00
5:53 AM,-15.0,-18.9,82,29.74,10.0,Calm,Calm,-,N/A,,Partly Cloudy,0,2012-12-15 14:53:00
6:51 AM,-14.8,-18.4,84,29.72,10.0,Calm,Calm,-,N/A,,Mostly Cloudy,0,2012-12-15 15:51:00
6:53 AM,-13.0,-18.0,78,29.73,10.0,Calm,Calm,-,N/A,,Mostly Cloudy,0,2012-12-15 15:53:00
7:53 AM,-6.0,-9.0,87,29.72,10.0,ENE,4.6,-,N/A,,Scattered Clouds,60,2012-12-15 16:53:00
8:15 AM,-5.8,-9.4,84,29.71,10.0,East,4.6,-,N/A,,Mostly Cloudy,80,2012-12-15 17:15:00
8:53 AM,-7.1,-11.0,83,29.72,9.0,NE,3.5,-,N/A,,Overcast,50,2012-12-15 17:53:00
9:51 AM,-9.4,-14.8,77,29.71,10.0,Calm,Calm,-,N/A,,Mostly Cloudy,0,2012-12-15 18:51:00
9:53 AM,-9.9,-14.1,82,29.72,10.0,Calm,Calm,-,N/A,,Mostly Cloudy,0,2012-12-15 18:53:00
10:51 AM,-4.0,-7.6,85,29.70,7.0,ENE,8.1,-,N/A,,Overcast,70,2012-12-15 19:51:00
10:53 AM,-4.0,-8.0,83,29.70,7.0,ENE,8.1,-,N/A,,Overcast,70,2012-12-15 19:53:00
11:53 AM,-2.9,-7.1,82,29.71,5.0,ENE,8.1,-,N/A,,Overcast,70,2012-12-15 20:53:00
12:53 PM,-2.9,-7.1,82,29.70,4.0,East,8.1,-,N/A,,Overcast,80,2012-12-15 21:53:00
1:53 PM,-2.9,-7.1,82,29.68,10.0,East,10.4,-,N/A,,Mostly Cloudy,80,2012-12-15 22:53:00
2:53 PM,-2.9,-7.1,82,29.66,10.0,East,12.7,-,N/A,,Mostly Cloudy,80,2012-12-15 23:53:00
3:53 PM,-2.9,-6.0,87,29.64,10.0,East,13.8,-,N/A,,Overcast,90,2012-12-16 00:53:00
4:53 PM,-2.0,-6.0,83,29.64,10.0,East,12.7,-,N/A,,Overcast,100,2012-12-16 01:53:00
5:53 PM,-0.0,-5.1,79,29.62,4.0,East,16.1,-,0.00,Snow,Light Snow,100,2012-12-16 02:53:00
6:19 PM,-0.4,-5.8,78,29.61,2.0,East,17.3,-,0.01,Snow,Light Snow,100,2012-12-16 03:19:00
6:53 PM,-0.0,-5.1,79,29.60,2.0,East,15.0,-,0.01,Snow,Light Snow,100,2012-12-16 03:53:00
7:53 PM,-0.0,-4.0,83,29.60,2.0,East,16.1,-,0.01,Snow,Light Snow,90,2012-12-16 04:53:00
8:50 PM,-0.4,-5.8,78,29.59,4.0,East,16.1,-,0.01,Snow,Light Snow,90,2012-12-16 05:50:00
8:53 PM,-0.0,-5.1,79,29.60,5.0,East,17.3,-,0.01,Snow,Light Snow,90,2012-12-16 05:53:00
9:53 PM,-0.0,-4.0,83,29.58,7.0,East,13.8,-,0.00,Snow,Light Snow,90,2012-12-16 06:53:00
10:53 PM,1.0,-4.0,79,29.59,8.0,ENE,11.5,-,0.00,,Overcast,70,2012-12-16 07:53:00
11:53 PM,1.0,-4.0,79,29.59,10.0,ENE,8.1,-,N/A,,Overcast,70,2012-12-16 08:53:00